Regional Weather Roundup
Issued by NWS San Diego, CA

Home | Current Version | Previous Version | Text Only | Print | Product List | Glossary On
Versions: 1 2 3 4 5 6 7 8 9 10 11 12 13 14 15 16 17 18 19 20 21 22 23 24 25 26 27 28 29 30 31 32 33 34 35 36 37 38 39 40 41 42 43 44 45 46 47 48 49 50
000
ASUS46 KSGX 051211
RWRSGX

SAN DIEGO HOURLY WEATHER ROUNDUP
NATIONAL WEATHER SERVICE SAN DIEGO CA
500 AM PDT WED AUG 05 2015

NOTE: "FAIR" INDICATES FEW OR NO CLOUDS BELOW 12,000 FEET WITH NO
SIGNIFICANT WEATHER AND/OR OBSTRUCTIONS TO VISIBILITY.

CAZ042-043-060-061-PZZ750-775-051300-

GREATER SAN DIEGO AREA

CITY           SKY/WX    TMP DP  RH WIND       PRES   REMARKS
LINDBERGH FLD  PTCLDY    70  64  81 CALM      29.92S
POINT LOMA       N/A     66  64  92 N3          N/A
NATIONAL CITY    N/A     68  63  84 CALM      29.91S
CHULA VISTA      N/A     65  63  91 CALM      29.83S
IMPERIAL BEACH CLEAR    N/A N/A N/A CALM        N/A
BROWN FIELD    CLEAR     65  63  93 CALM      29.91S
MIRAMAR MCAS   CLEAR     64  61  90 CALM      29.91S
MONTGOMERY FLD CLEAR     68  63  84 CALM      29.91S

$$

NORTH SAN DIEGO COUNTY

CITY           SKY/WX    TMP DP  RH WIND       PRES   REMARKS
CAMP PENDLETON PTCLDY    63  57  81 CALM      29.89F
OCEANSIDE AP   PTCLDY    63  60  90 CALM      29.89F
VISTA            N/A     63  58  84 CALM      29.88S
CARLSBAD       CLEAR     68  64  87 CALM      29.90S
DEL MAR          N/A     66  65  97 CALM      29.92S
FALLBROOK        N/A     65  65 100 CALM      29.90F
ESCONDIDO        N/A     67  61  82 CALM      29.91F
POWAY            N/A     62  58  87 CALM      29.91S

$$

EAST SAN DIEGO COUNTY

CITY           SKY/WX    TMP DP  RH WIND       PRES   REMARKS
RAMONA         CLEAR     60  55  83 CALM      29.94F
SANTEE LAKES     N/A     63  60  89 CALM      29.89S
LA MESA          N/A     66  62  87 CALM      29.83S
JAMUL            N/A     62  58  86 CALM      29.89S
DESCANSO N       N/A     62  44  52 E5        29.78S
CAMPO            N/A     55  45  68 NE5       29.99R

$$

ORANGE COUNTY AND THE LOS ANGELES BASIN

CITY           SKY/WX    TMP DP  RH WIND       PRES   REMARKS
JOHN WAYNE AP  PTCLDY    68  59  73 CALM      29.89F
SANTA ANA        N/A     68  60  75 CALM      29.84F
HUNTINGTON BCH   N/A     65  62  91 CALM      29.91F
LOS ALAMITOS   FAIR      65  61  86 CALM      29.90S
FULLERTON      PTCLDY    71  59  65 CALM      29.89F
LONG BEACH     CLEAR     70  61  73 CALM      29.90S
L.A. AP        PTCLDY    68  62  81 CALM      29.90S
L.A. DOWNTOWN  CLEAR     68  61  78 CALM      29.90S

$$

THE INLAND EMPIRE

CITY           SKY/WX    TMP DP  RH WIND       PRES   REMARKS
CORONA         PTCLDY    61  55  80 CALM      29.92S
CHINO          PTCLDY    66  57  72 CALM      29.93S
ONTARIO        MOCLDY    70  53  54 CALM      29.92F
RIVERSIDE AP   PTCLDY    70  57  63 E3        29.92F
MORENO VALLEY    N/A     70  59  67 CALM      29.92S
MARCH ARB      PTCLDY    67  53  61 CALM      29.95S
HORSETHIEF CYN   N/A     70  43  37 S2        29.92F
PERRIS           N/A     69  56  62 CALM      29.96S
MENIFEE          N/A     69  57  65 CALM      29.98F
HEMET EAST       N/A     71  40  32 CALM      29.92S
FRENCH VALLEY  FAIR      66  55  68 CALM      29.95S
TEMECULA         N/A     66  59  79 CALM      29.92R

$$

SAN BERNARDINO AND RIVERSIDE COUNTY MOUNTAINS

CITY           SKY/WX    TMP DP  RH WIND       PRES   REMARKS
BIG BEAR AP    PTCLDY    61  34  36 W7        30.28S
ANGELUS OAKS     N/A     64  38  38 CALM      29.80S
PINE COVE        N/A     67  34  29 N3        29.88F

$$

SOUTHERN DESERT INCLUDING THE COACHELLA VALLEY

CITY           SKY/WX    TMP DP  RH WIND       PRES   REMARKS
PALM SPRINGS   CLEAR     82  50  32 SE3       29.80F
THOUSAND PALMS   N/A     92  42  17 NW12      29.74F
PALM DESERT      N/A     79  54  41 CALM        N/A
THERMAL        CLEAR     84  45  25 CALM      29.74R
BLYTHE         CLEAR     84  50  30 CALM      29.79S
IMPERIAL AP    CLEAR     82  51  34 CALM      29.75F
EL CENTRO NAS  CLEAR     82  56  40 SW5       29.78S
YUMA AZ        CLEAR     85  58  39 S3        29.79R

$$

UPPER DESERT

CITY           SKY/WX    TMP DP  RH WIND       PRES   REMARKS
VICTORVILLE AP PTCLDY    70  46  43 CALM      30.02S
HESPERIA         N/A     74  47  37 CALM      29.95S
APPLE VALLEY     N/A     74  45  34 CALM      30.04F
PALMDALE       CLEAR     75  45  34 CALM      30.00S
LANCASTER      CLEAR     67  49  52 W8        30.00R
EDWARDS AFB    CLEAR     67  52  57 S8        29.97R
DAGGETT        PTCLDY    77  47  34 W15       29.94R
29 PALMS N     CLEAR     78  41  26 NW7       29.99R
NEEDLES        CLEAR     87  37  17 SW5       29.82R

$$

REGIONAL REPORTS

CITY           SKY/WX    TMP DP  RH WIND       PRES   REMARKS
SANTA BARBARA  CLEAR     66  58  75 NE6       29.92R
SANDBERG       CLEAR     67  47  48 SW6       30.12F
LAS VEGAS NV   PTCLDY    89  40  17 S8        29.85R
PHOENIX AZ     CLEAR     94  46  19 NW7       29.84R
TIJUANA        CLEAR     66  63  88 CALM      29.93F
ENSENADA NW      N/A     69  32  25 CALM      29.86S

$$

OFFSHORE ISLANDS

CITY           SKY/WX    TMP DP  RH WIND       PRES   REMARKS
CATALINA ARPT  CLEAR     74  30  19 W9        29.97R
SAN NICOLAS IS CLEAR    N/A N/A N/A NW30G39   29.93S

$$

MARINE AND OFFSHORE BUOY REPORTS

STATION/POSITION SKY/WX   TEMP    WIND        PRES    SWELL
                          AIR SEA DIR/SP/G            HT/PER/DIR
                          (F)     (DEG/KT/KT) (MB)    (FT/S/D)
TANNER BANKS               67 68  310/ 23/ 27 1013.5S   2/240/14
S CLEMENTE BASIN           67 69  300/ 14/ 16 1012.3S   3/300/ 7
SAN NICOLAS IS.               66                N/A     2/180/15
SO. S. ROSA ISLA           64 65  310/ 21/ 27 1013.0R
W. S. BARBARA CH           62 62  330/ 17/ 21 1013.5S   2/250/15
M. S. BARBARA CH           66 66  300/  6/ 14 1013.9R
S. MONICA BASIN            68 71  330/  8/ 10 1012.5R   3/280/ 6
S PEDRO CHANNEL               71                N/A     2/180/17
DANA POINT                    72                N/A     2/190/15
OCEANSIDE OFFSHR              70                N/A     2/200/17
TORREY PINES OTR              71                N/A     2/190/15
LA JOLLA 1                 68 66   CALM  /  1 1012.3F
MISSION BAY BUOY              70                N/A     2/200/15
SAN DIEGO BAY                 74              1013.0F
POINT LOMA SOUTH              71                N/A     2/190/14

$$




USA.gov is the U.S. government's official web portal to all federal, state and local government web resources and services.